Showing default

GHGSAT-C12, 64529

Orbit data source: Space-Track

GHGSAT-C12, 64529 is a payload satellite owned by GHG (CA) in SSO that was launched on Mon, 23 Jun 2025 UTC via an FALCON 9 launch vehicle from the Air Force Western Test Range (AFWTR). Payload-class satellites include a variety of spacecraft equipped with specific instruments for various scientific and technological missions. These include communications satellites like Starlink; space stations such as the ISS; scientific satellites like the Hubble; Earth observation satellites from companies like Planet Labs, Umbra, and HawkEye 360; GPS; miniature CubeSats for education and research; and military/defense satellites.

Loading next visibility...
Identifier
64529, 2025-135B
Orbit
SSO
Country
Flag of CACA
Related business
Manufacturer
UTIAS-SFL
Mission
Operational Commercial Earth Obs Sci
Bus & Motor
NEMO-V1, Unknown motor
Mass
15 kg wet, 15 kg dry
Launch date (UTC)
2025-06-23 (10 months ago)
Launch vehicle
FALCON 9
Launch site
Air Force Western Test Range (AFWTR)
Object type
Payload
Rocket body
Debris
Shape & HBR
Box, 1.0 m
Radar Cross Section
0.100 m², Small (<0.1 m²)

Expand to show TLE details & history
Last TLE update: 8 hours ago

TLE from 8 hours ago
0 GHGSAT-C12
1 64529U 25135B   26104.92116542  .00002141  00000-0  10298-3 0  9996
2 64529  97.4663 220.3362 0005880  48.0678 312.1057 15.19875678 45213
Epoch: 2026-04-14T22:06Z
TLE epoch observation values (Epoch: 2026-04-14T22:06:28.692Z)
Latitude
-0.00004°
Longitude
45.62617°
Altitude
506.591 km
Speed
7.612 km/s
True Right ascension
14h 41m 20s
True Declination
0° 00' 00"
Sunlit
Object was in full shadow at epoch
Visualization orbit readout
Latitude
Unknown
Longitude
Unknown
Altitude
Unknown
Speed
Unknown
Apparent Right ascension
Unknown
Apparent Declination
Unknown
Sunlit
N/A
Visualization observer readout
Local Sidereal Time
12:25:51
Azimuth
Unknown
Elevation
Unknown
Doppler factor
Unknown
Orbital elements
Apogee altitude
507.231 km
Perigee altitude
499.138 km
Semi-major axis
6,881.322 km
Eccentricity
0.00059
Inclination
97.4663°
RAAN
220.3362°
Arg. of periapsis
48.0678°
True anomaly
312.05569°
Mean anomaly
312.1057°
Eccentric anomaly
312.0807°
Mean motion
3.8022 °/min
Orbital period
94.68 mins
BSTAR
0.00010298
Loading maneuver chart data...
Computing Atmospheric mass density...
Loading historical data...
Loading historical data...
Loading historical data...
Loading historical data...
Loading historical data...
Loading historical data...
Loading historical data...

Documentation

Showing up to 5 results
|